Wind_Speed
46 46 36 16 20 21 26 30 33 36 37 31 30 29 22 21 19 17 17 17 16 15 13 14 14 14 14 15 15 15 16 16 16 16 15 16 17 16 16 16 15 15 16
48 37 23 26 26 24 27 33 35 39 37 35 34 28 24 22 19 18 17 16 16 13 13 15 13 14 14 15 15 16 16 15 15 15 15 16 17 15 13 13 15 16 18
49 35 27 25 28 28 26 30 37 41 40 37 35 30 27 24 20 19 17 15 15 13 14 14 13 14 14 14 15 16 15 15 15 14 13 13 14 15 16 15 17 19 21
34 37 38 26 30 31 27 29 38 41 40 39 38 34 29 25 22 19 16 15 15 13 15 13 13 13 14 14 15 15 14 15 15 15 11 10 12 13 14 17 20 22 23
37 37 41 38 37 35 29 29 32 40 42 45 42 36 32 24 20 18 16 16 16 14 15 13 14 13 14 14 15 15 15 15 14 13 12 11 13 14 16 18 20 23 24
30 35 27 31 43 37 33 31 33 39 45 46 43 40 29 22 19 20 18 18 15 15 15 14 14 13 15 14 15 15 15 16 15 13 14 15 15 17 19 21 22 23 24
29 29 34 32 29 41 35 37 36 40 45 45 38 35 28 20 21 19 20 18 16 16 15 15 14 15 14 13 14 14 15 15 15 15 15 15 16 18 19 22 25 27 29
36 34 32 34 35 39 35 44 38 43 43 44 35 33 25 23 19 23 21 19 16 16 17 14 15 15 13 14 14 13 14 14 15 16 16 16 17 18 18 21 24 29 30
38 39 44 46 37 39 40 50 44 44 42 37 36 34 25 22 24 23 21 19 17 17 16 15 16 14 14 14 14 14 15 15 16 16 17 17 17 18 20 23 26 28 28
38 39 40 43 50 47 41 52 45 43 38 33 40 29 23 26 24 22 21 19 19 17 16 17 16 14 14 14 14 15 15 16 18 18 18 19 19 20 21 24 26 27 29
41 40 40 41 37 45 37 51 45 40 32 36 31 25 24 24 23 22 20 19 19 17 18 17 16 15 15 15 15 15 16 17 18 18 18 19 21 21 22 25 27 28 29
35 35 38 36 40 51 48 45 36 30 34 36 26 23 24 25 23 20 19 20 18 18 19 17 16 16 16 16 16 16 17 18 19 19 18 19 21 23 24 26 27 27 28
23 24 30 29 29 42 42 30 29 30 32 27 23 23 25 23 20 20 20 18 19 19 18 18 16 17 17 17 16 18 19 19 19 19 19 20 21 22 25 26 27 27 27
21 23 22 21 22 25 28 29 28 29 27 21 25 24 23 21 20 20 20 20 19 19 18 17 18 19 19 18 17 18 19 20 21 20 20 21 21 23 24 25 26 27 26
6 11 14 16 17 25 28 31 29 20 20 20 19 21 20 19 19 21 20 20 20 21 20 18 19 20 20 19 19 19 20 21 21 21 21 21 22 23 24 26 26 26 25
14 13 13 13 19 24 24 22 23 25 25 26 26 25 25 25 21 20 20 20 21 19 18 19 20 21 21 20 20 20 20 21 21 21 21 21 22 24 25 26 26 26 25
10 7 4 9 9 15 18 21 23 25 27 27 25 24 21 21 19 19 19 20 20 20 20 20 20 21 22 21 21 21 21 22 21 21 22 22 23 25 26 26 27 27 27
8 6 4 7 12 14 17 19 21 23 22 20 21 21 21 21 20 20 21 22 20 19 20 20 22 23 23 23 22 22 23 23 22 22 22 23 24 25 26 27 27 27 27
13 14 14 14 15 17 19 21 23 24 24 26 25 24 23 23 22 21 22 21 19 20 23 22 23 24 24 23 23 23 24 23 22 22 22 23 24 26 26 27 27 27 28
19 21 23 19 21 21 23 24 25 24 25 26 25 23 22 22 21 21 20 18 19 23 24 24 25 24 24 24 25 25 25 24 23 23 23 24 25 26 27 26 27 28 28
16 15 22 32 29 25 26 25 24 24 24 24 23 22 22 22 23 21 21 23 24 26 26 26 25 25 25 25 26 26 24 23 23 24 24 24 25 26 26 26 26 28 28
20 21 18 24 28 27 26 24 23 24 24 23 23 25 25 25 23 23 23 22 24 26 27 26 25 26 27 27 27 26 24 23 24 24 24 25 25 26 26 26 26 27 27
23 22 23 22 28 31 33 30 28 26 24 24 26 26 25 23 24 24 23 24 27 28 27 27 27 27 28 28 27 25 24 24 24 24 24 25 25 25 25 25 26 26 26
29 27 21 30 18 30 32 32 29 29 27 25 26 26 25 25 27 26 25 27 29 28 28 28 27 27 28 28 27 25 24 24 24 24 24 24 25 25 25 25 25 25 26
23 22 22 23 24 21 34 35 34 33 29 26 25 26 26 28 30 28 27 29 29 29 29 29 27 27 28 27 26 25 24 24 24 24 24 24 24 24 24 24 25 25 24
19 22 21 21 14 15 19 32 28 27 25 21 24 26 28 28 30 29 28 30 30 30 30 29 28 28 28 27 26 25 24 23 23 24 23 23 23 23 23 24 24 24 24
Wind_Direction
232 222 231 225 212 220 239 241 232 230 229 229 237 242 246 255 265 275 283 283 280 279 293 294 294 293 294 302 306 309 308 309 314 314 317 318 316 318 323 329 335 342 345
220 215 218 220 235 232 239 238 230 227 226 229 234 237 242 252 260 270 278 275 272 282 289 287 286 289 295 301 306 309 309 311 312 315 319 322 319 319 320 328 336 342 344
216 230 248 236 237 236 245 236 231 228 227 230 234 232 238 248 255 263 270 264 270 279 280 279 279 285 292 299 305 309 311 311 310 311 314 319 318 320 325 332 338 340 338
232 256 248 244 247 241 241 237 231 228 229 232 233 230 233 240 250 259 260 260 265 271 271 271 275 283 291 298 304 307 310 309 309 307 309 315 314 314 317 325 331 330 327
257 257 255 247 239 236 241 240 237 231 230 234 236 231 231 234 247 257 252 257 264 267 263 266 272 279 286 294 302 306 310 309 307 307 309 311 310 308 309 312 315 319 322
257 254 253 261 252 250 238 240 239 233 231 235 239 244 232 234 243 251 247 251 256 257 256 261 267 275 281 293 300 307 311 309 307 305 307 309 307 304 307 310 312 315 320
271 275 264 250 257 251 259 242 240 232 234 235 237 239 230 228 242 240 245 250 251 254 256 258 264 269 277 288 298 307 307 304 304 303 304 307 306 306 308 314 319 322 326
255 258 258 245 240 246 258 250 242 233 230 234 232 244 219 228 232 238 242 247 249 250 252 256 261 264 271 282 296 303 302 303 301 301 303 306 306 309 312 316 321 325 329
257 255 255 256 246 250 256 254 241 232 228 229 235 220 216 224 230 230 237 242 244 244 247 252 255 259 267 281 294 299 303 307 304 303 305 308 311 314 319 322 326 328 330
262 257 255 249 258 258 249 249 239 227 224 225 226 206 213 226 223 229 236 240 242 244 245 248 252 255 264 278 289 297 304 307 308 309 309 312 315 318 320 322 327 330 333
258 253 246 251 248 245 256 247 232 223 217 220 205 206 221 225 227 229 234 238 242 245 247 249 248 251 263 275 286 294 302 305 308 309 311 314 316 317 322 326 330 332 333
252 247 242 245 245 243 243 235 228 211 218 208 202 214 219 222 225 230 234 237 242 245 247 249 248 253 262 273 283 293 298 304 307 307 310 314 316 319 324 327 329 330 329
236 244 242 240 259 251 234 227 208 207 203 203 209 215 217 219 223 228 230 237 238 242 246 248 251 254 260 268 280 289 296 303 305 308 311 313 315 318 322 325 327 328 328
224 222 231 235 244 240 208 206 196 194 199 211 219 213 216 221 226 231 232 232 236 243 246 249 253 254 258 266 276 285 294 301 305 308 310 312 314 317 321 324 326 328 328
134 181 183 172 172 193 192 183 191 188 204 210 211 212 220 226 227 227 229 232 235 240 246 252 252 253 258 266 274 284 292 299 303 306 308 310 313 316 319 321 323 324 323
54 92 120 151 182 185 182 182 185 192 199 203 201 210 218 223 233 237 240 240 248 250 248 248 250 253 259 265 273 282 290 297 300 303 307 310 313 315 317 319 321 321 320
33 54 95 152 189 189 198 203 203 206 209 209 213 222 227 231 235 239 240 243 245 246 247 249 251 256 261 266 272 280 287 294 296 301 306 309 312 313 315 317 318 318 317
307 312 248 207 206 207 204 206 209 214 223 228 227 228 227 232 237 241 244 246 245 248 248 249 251 254 259 264 272 279 287 292 295 300 304 308 310 311 313 314 315 315 313
256 253 249 250 242 226 221 218 216 216 216 219 221 222 226 233 235 240 245 245 241 243 245 248 252 255 260 266 273 279 286 290 293 299 304 307 307 309 311 311 313 311 311
263 254 243 236 232 235 238 227 220 218 219 223 228 230 233 237 242 247 247 244 243 245 246 247 253 257 261 267 273 278 284 287 292 298 302 304 305 307 308 309 310 309 310
262 265 264 255 246 226 229 228 225 224 222 227 231 233 234 237 238 239 238 237 244 245 245 250 255 259 261 264 270 277 282 285 291 296 300 302 304 305 305 307 308 307 308
268 264 275 245 236 228 228 225 224 223 225 229 231 232 234 237 241 244 246 248 250 248 248 251 255 260 261 264 270 278 280 284 290 295 299 300 302 302 303 305 305 306 308
273 280 260 285 233 227 229 227 227 226 225 231 235 236 241 243 245 246 247 248 249 249 248 250 253 259 261 266 272 275 278 283 289 294 295 297 299 300 302 304 305 306 307
267 264 270 250 266 231 230 230 226 225 225 229 234 239 243 243 247 246 245 246 249 249 250 251 255 259 263 267 271 273 277 283 288 291 293 295 297 299 301 303 304 305 304
267 263 263 244 266 265 229 226 227 224 223 230 238 245 249 243 245 247 249 250 251 251 251 253 255 258 262 266 268 271 276 282 287 289 291 293 295 297 300 302 303 303 304
265 266 250 229 268 278 253 228 228 227 227 235 247 249 250 252 249 250 254 256 255 253 252 252 254 258 262 264 266 269 275 280 285 288 290 292 295 298 300 302 302 304 306
Height
2992 2994 2995 2999 3002 3007 3013 3015 3016 3020 3025 3027 3029 3035 3036 3041 3041 3037 3038 3039 3040 3039 3035 3036 3035 3034 3034 3033 3032 3030 3029 3028 3024 3023 3020 3018 3016 3013 3011 3008 3005 3002 3000
2980 2985 2988 2991 2995 2996 3002 3009 3011 3015 3016 3019 3023 3026 3030 3033 3033 3032 3033 3033 3035 3033 3031 3032 3031 3031 3029 3028 3028 3027 3026 3023 3021 3019 3017 3014 3013 3011 3009 3006 3003 3000 2997
2973 2976 2977 2980 2985 2991 2994 2996 3005 3009 3009 3013 3016 3017 3022 3025 3026 3026 3026 3028 3029 3027 3028 3028 3027 3027 3026 3024 3024 3023 3021 3020 3018 3016 3014 3012 3010 3008 3006 3004 3001 2997 2994
2969 2969 2971 2973 2979 2983 2985 2989 2996 3001 3003 3007 3008 3010 3015 3017 3020 3021 3022 3022 3023 3021 3024 3023 3023 3022 3023 3021 3020 3019 3018 3016 3015 3013 3010 3009 3008 3007 3005 3002 2998 2995 2992
2959 2963 2965 2966 2970 2973 2975 2979 2985 2990 2995 2998 3000 3004 3008 3010 3014 3015 3015 3016 3019 3016 3019 3018 3018 3018 3019 3018 3017 3015 3014 3012 3011 3009 3008 3005 3004 3003 3002 3000 2997 2993 2989
2952 2953 2955 2957 2961 2962 2963 2970 2975 2980 2985 2989 2994 2997 3001 3003 3007 3009 3009 3010 3010 3012 3013 3013 3014 3014 3015 3014 3013 3011 3010 3009 3007 3005 3004 3003 3000 2998 2997 2996 2993 2990 2986
2944 2944 2946 2948 2952 2954 2956 2961 2965 2970 2976 2980 2985 2990 2993 2997 3000 3003 3004 3004 3004 3006 3008 3009 3009 3010 3011 3010 3009 3007 3007 3005 3003 3002 3001 2999 2997 2994 2992 2990 2987 2983 2978
2933 2934 2937 2940 2941 2944 2947 2953 2955 2959 2965 2970 2978 2982 2986 2990 2991 2995 2997 2998 2999 3001 3003 3003 3004 3005 3006 3006 3005 3004 3004 3002 3000 2999 2997 2995 2993 2990 2988 2985 2982 2977 2971
2921 2925 2929 2931 2934 2937 2938 2940 2945 2948 2953 2963 2970 2973 2978 2981 2985 2988 2990 2991 2993 2995 2996 2998 3000 2999 3001 3001 3000 3000 2999 2998 2996 2995 2993 2990 2987 2986 2983 2980 2977 2972 2966
2909 2914 2918 2920 2920 2924 2928 2931 2936 2938 2946 2955 2963 2966 2971 2975 2977 2982 2985 2986 2988 2990 2991 2993 2994 2995 2996 2996 2996 2995 2994 2993 2992 2990 2987 2984 2982 2981 2978 2975 2971 2966 2961
2899 2902 2905 2908 2911 2911 2916 2920 2926 2930 2939 2949 2956 2961 2964 2970 2973 2977 2979 2981 2982 2984 2987 2987 2988 2990 2991 2991 2991 2991 2990 2989 2987 2985 2983 2980 2977 2975 2973 2969 2965 2960 2955
2887 2890 2894 2898 2900 2903 2907 2912 2921 2927 2935 2943 2949 2954 2958 2963 2968 2971 2973 2975 2976 2979 2981 2981 2983 2985 2986 2987 2986 2985 2985 2984 2982 2980 2978 2975 2972 2969 2967 2963 2959 2956 2952
2878 2881 2884 2888 2891 2892 2901 2911 2917 2924 2931 2940 2944 2949 2953 2957 2962 2966 2968 2968 2971 2973 2975 2976 2977 2979 2981 2982 2981 2980 2980 2979 2977 2975 2972 2970 2967 2964 2961 2958 2954 2951 2946
2867 2869 2873 2878 2883 2889 2898 2905 2914 2921 2928 2934 2940 2944 2948 2952 2956 2959 2961 2963 2965 2967 2970 2971 2973 2975 2976 2977 2976 2975 2975 2974 2972 2969 2967 2964 2962 2959 2956 2953 2949 2945 2940
2863 2864 2868 2873 2880 2889 2896 2904 2912 2920 2927 2932 2935 2939 2943 2948 2951 2953 2955 2957 2958 2961 2963 2965 2968 2969 2970 2971 2970 2970 2969 2968 2966 2964 2961 2959 2956 2954 2951 2948 2944 2941 2937
2870 2870 2872 2875 2883 2889 2896 2903 2909 2915 2920 2923 2925 2931 2937 2940 2943 2947 2949 2950 2953 2955 2958 2960 2962 2963 2964 2964 2964 2964 2963 2962 2960 2958 2955 2953 2951 2948 2945 2942 2938 2935 2932
2878 2880 2882 2885 2890 2893 2898 2902 2907 2910 2914 2917 2922 2928 2932 2936 2939 2941 2942 2945 2948 2950 2953 2955 2956 2957 2958 2958 2958 2958 2957 2956 2954 2952 2950 2947 2945 2942 2939 2936 2933 2929 2926
2881 2883 2886 2888 2891 2894 2897 2900 2903 2907 2911 2914 2919 2924 2927 2929 2932 2934 2937 2939 2942 2945 2947 2948 2950 2951 2952 2952 2952 2952 2951 2949 2948 2946 2944 2942 2939 2936 2933 2930 2927 2924 2920
2882 2883 2885 2887 2890 2892 2894 2897 2899 2902 2907 2910 2913 2917 2920 2923 2925 2927 2930 2935 2936 2938 2940 2941 2943 2944 2945 2945 2945 2945 2944 2943 2941 2939 2938 2936 2933 2930 2927 2924 2921 2917 2914
2880 2881 2882 2884 2885 2888 2890 2892 2895 2898 2902 2905 2909 2912 2915 2917 2919 2922 2926 2928 2929 2932 2933 2935 2936 2937 2937 2938 2938 2938 2938 2936 2935 2933 2931 2929 2926 2923 2921 2918 2914 2911 2908
2877 2877 2878 2880 2881 2883 2886 2889 2892 2895 2898 2901 2904 2906 2909 2912 2914 2917 2919 2921 2922 2925 2926 2928 2928 2929 2930 2931 2931 2931 2930 2929 2928 2926 2924 2922 2920 2917 2914 2911 2908 2904 2901
2871 2872 2872 2874 2875 2877 2880 2883 2885 2889 2893 2895 2898 2900 2902 2905 2909 2911 2912 2914 2917 2918 2919 2920 2921 2922 2923 2924 2923 2923 2922 2922 2921 2919 2917 2915 2913 2910 2907 2904 2901 2898 2895
2864 2865 2866 2867 2869 2871 2874 2877 2880 2883 2886 2890 2893 2895 2897 2900 2903 2904 2906 2907 2909 2911 2911 2912 2913 2914 2915 2916 2916 2915 2915 2914 2913 2912 2910 2908 2906 2903 2900 2898 2895 2891 2888
2855 2857 2858 2860 2861 2864 2867 2871 2874 2877 2881 2884 2886 2889 2891 2894 2896 2897 2899 2900 2902 2902 2903 2904 2905 2906 2907 2908 2908 2907 2907 2907 2906 2904 2903 2901 2898 2896 2893 2891 2888 2885 2882
2846 2848 2850 2851 2854 2855 2859 2863 2866 2869 2874 2877 2880 2882 2883 2886 2888 2889 2890 2892 2893 2894 2895 2896 2897 2898 2899 2900 2900 2900 2899 2899 2898 2897 2895 2893 2891 2889 2886 2884 2881 2879 2876
2839 2840 2841 2843 2846 2848 2849 2854 2858 2863 2866 2869 2872 2873 2876 2878 2879 2880 2883 2883 2884 2885 2886 2887 2888 2889 2891 2891 2892 2892 2891 2891 2890 2889 2887 2886 2884 2881 2879 2877 2874 2872 2869